Retour au catalogue

OPS 4682 DEB

ActifPO
NORAD 51765·DEBRIS·🇺🇸 United States

Lancé Apr 3, 1965 depuis Vandenberg Space Force Base

Loading…

Prochains Passages (prochaines 24 heures)

TLE

FraisSource: Space-Track

Époque: Sep 14, 2026, 06:00 UTC

1 51765U 65027GW  26257.25065125 -.00000226  00000-0 -73546-3 0  9992
2 51765  90.2410   3.4363 0028275   3.1880  25.1419 13.03737541603549

Suivez OPS 4682 DEB en temps réel avec AllMySat

Download on the App Store